<?xml version="1.0"?>
<gpx xmlns="http://www.topografix.com/GPX/1/1" xmlns:xsi="http://www.w3.org/2001/XMLSchema-instance" version="1.1" creator="GPX RubyGem 1.0.0 -- http://dougfales.github.io/gpx/" xsi:schemaLocation="http://www.topografix.com/GPX/1/1 http://www.topografix.com/GPX/1/1/gpx.xsd">
  <metadata>
    <name/>
    <time>2026-05-08T04:42:52+00:00</time>
    <bound minlat="90.0" minlon="180.0" maxlat="-90.0" maxlon="-180.0"/>
  </metadata>
  <trk>
    <name/>
    <trkseg>
      <trkpt lat="46.139531" lon="7.99138">
        <time>1970-01-01T00:00:00+00:00</time>
        <ele>3129.0</ele>
      </trkpt>
      <trkpt lat="46.139764" lon="7.991417">
        <time>1970-01-01T00:00:00+00:00</time>
        <ele>3134.0</ele>
      </trkpt>
      <trkpt lat="46.139748" lon="7.99375">
        <time>1970-01-01T00:00:00+00:00</time>
        <ele>3183.0</ele>
      </trkpt>
      <trkpt lat="46.140105" lon="7.994598">
        <time>1970-01-01T00:00:00+00:00</time>
        <ele>3194.0</ele>
      </trkpt>
      <trkpt lat="46.140184" lon="7.995469">
        <time>1970-01-01T00:00:00+00:00</time>
        <ele>3198.0</ele>
      </trkpt>
      <trkpt lat="46.139599" lon="7.998332">
        <time>1970-01-01T00:00:00+00:00</time>
        <ele>3241.0</ele>
      </trkpt>
      <trkpt lat="46.139859" lon="7.999784">
        <time>1970-01-01T00:00:00+00:00</time>
        <ele>3322.0</ele>
      </trkpt>
      <trkpt lat="46.140149" lon="7.999904">
        <time>1970-01-01T00:00:00+00:00</time>
        <ele>3326.0</ele>
      </trkpt>
      <trkpt lat="46.141024" lon="8.001239">
        <time>1970-01-01T00:00:00+00:00</time>
        <ele>3373.0</ele>
      </trkpt>
      <trkpt lat="46.141138" lon="8.002494">
        <time>1970-01-01T00:00:00+00:00</time>
        <ele>3416.0</ele>
      </trkpt>
      <trkpt lat="46.142464" lon="8.004653">
        <time>1970-01-01T00:00:00+00:00</time>
        <ele>3466.0</ele>
      </trkpt>
      <trkpt lat="46.145461" lon="8.007259">
        <time>1970-01-01T00:00:00+00:00</time>
        <ele>3463.0</ele>
      </trkpt>
      <trkpt lat="46.144263" lon="8.007816">
        <time>1970-01-01T00:00:00+00:00</time>
        <ele>3464.0</ele>
      </trkpt>
      <trkpt lat="46.142942" lon="8.007461">
        <time>1970-01-01T00:00:00+00:00</time>
        <ele>3511.0</ele>
      </trkpt>
      <trkpt lat="46.141266" lon="8.00756">
        <time>1970-01-01T00:00:00+00:00</time>
        <ele>3614.0</ele>
      </trkpt>
      <trkpt lat="46.140598" lon="8.007068">
        <time>1970-01-01T00:00:00+00:00</time>
        <ele>3665.0</ele>
      </trkpt>
      <trkpt lat="46.139978" lon="8.007244">
        <time>1970-01-01T00:00:00+00:00</time>
        <ele>3660.0</ele>
      </trkpt>
      <trkpt lat="46.139167" lon="8.007904">
        <time>1970-01-01T00:00:00+00:00</time>
        <ele>3654.0</ele>
      </trkpt>
      <trkpt lat="46.138657" lon="8.008003">
        <time>1970-01-01T00:00:00+00:00</time>
        <ele>3685.0</ele>
      </trkpt>
      <trkpt lat="46.137736" lon="8.008935">
        <time>1970-01-01T00:00:00+00:00</time>
        <ele>3705.0</ele>
      </trkpt>
      <trkpt lat="46.13628" lon="8.011189">
        <time>1970-01-01T00:00:00+00:00</time>
        <ele>3764.0</ele>
      </trkpt>
      <trkpt lat="46.134362" lon="8.012467">
        <time>1970-01-01T00:00:00+00:00</time>
        <ele>3758.0</ele>
      </trkpt>
      <trkpt lat="46.133808" lon="8.012269">
        <time>1970-01-01T00:00:00+00:00</time>
        <ele>3777.0</ele>
      </trkpt>
      <trkpt lat="46.133528" lon="8.012445">
        <time>1970-01-01T00:00:00+00:00</time>
        <ele>3774.0</ele>
      </trkpt>
      <trkpt lat="46.130816" lon="8.011207">
        <time>1970-01-01T00:00:00+00:00</time>
        <ele>3859.0</ele>
      </trkpt>
      <trkpt lat="46.129327" lon="8.011316">
        <time>1970-01-01T00:00:00+00:00</time>
        <ele>3908.0</ele>
      </trkpt>
      <trkpt lat="46.128189" lon="8.010867">
        <time>1970-01-01T00:00:00+00:00</time>
        <ele>3981.0</ele>
      </trkpt>
      <trkpt lat="46.127748" lon="8.010847">
        <time>1970-01-01T00:00:00+00:00</time>
        <ele>3980.0</ele>
      </trkpt>
      <trkpt lat="46.127649" lon="8.011949">
        <time>1970-01-01T00:00:00+00:00</time>
        <ele>3989.0</ele>
      </trkpt>
      <trkpt lat="46.127775" lon="8.010137">
        <time>1970-01-01T00:00:00+00:00</time>
        <ele>3958.0</ele>
      </trkpt>
      <trkpt lat="46.12762" lon="8.009158">
        <time>1970-01-01T00:00:00+00:00</time>
        <ele>3919.0</ele>
      </trkpt>
      <trkpt lat="46.126564" lon="8.00715">
        <time>1970-01-01T00:00:00+00:00</time>
        <ele>3795.0</ele>
      </trkpt>
      <trkpt lat="46.125595" lon="8.003368">
        <time>1970-01-01T00:00:00+00:00</time>
        <ele>3777.0</ele>
      </trkpt>
      <trkpt lat="46.126152" lon="8.001795">
        <time>1970-01-01T00:00:00+00:00</time>
        <ele>3730.0</ele>
      </trkpt>
      <trkpt lat="46.126307" lon="7.999775">
        <time>1970-01-01T00:00:00+00:00</time>
        <ele>3662.0</ele>
      </trkpt>
      <trkpt lat="46.127093" lon="7.998978">
        <time>1970-01-01T00:00:00+00:00</time>
        <ele>3564.0</ele>
      </trkpt>
      <trkpt lat="46.127429" lon="7.997753">
        <time>1970-01-01T00:00:00+00:00</time>
        <ele>3501.0</ele>
      </trkpt>
      <trkpt lat="46.128443" lon="7.998561">
        <time>1970-01-01T00:00:00+00:00</time>
        <ele>3512.0</ele>
      </trkpt>
      <trkpt lat="46.12851" lon="7.998393">
        <time>1970-01-01T00:00:00+00:00</time>
        <ele>3507.0</ele>
      </trkpt>
      <trkpt lat="46.128488" lon="7.998871">
        <time>1970-01-01T00:00:00+00:00</time>
        <ele>3511.0</ele>
      </trkpt>
      <trkpt lat="46.128638" lon="7.998785">
        <time>1970-01-01T00:00:00+00:00</time>
        <ele>3502.0</ele>
      </trkpt>
      <trkpt lat="46.128667" lon="7.999044">
        <time>1970-01-01T00:00:00+00:00</time>
        <ele>3498.0</ele>
      </trkpt>
      <trkpt lat="46.128518" lon="8.000294">
        <time>1970-01-01T00:00:00+00:00</time>
        <ele>3523.0</ele>
      </trkpt>
      <trkpt lat="46.128967" lon="8.000897">
        <time>1970-01-01T00:00:00+00:00</time>
        <ele>3482.0</ele>
      </trkpt>
      <trkpt lat="46.130624" lon="8.000043">
        <time>1970-01-01T00:00:00+00:00</time>
        <ele>3353.0</ele>
      </trkpt>
      <trkpt lat="46.13113" lon="7.999255">
        <time>1970-01-01T00:00:00+00:00</time>
        <ele>3304.0</ele>
      </trkpt>
      <trkpt lat="46.13266" lon="7.999347">
        <time>1970-01-01T00:00:00+00:00</time>
        <ele>3251.0</ele>
      </trkpt>
      <trkpt lat="46.133822" lon="7.998643">
        <time>1970-01-01T00:00:00+00:00</time>
        <ele>3219.0</ele>
      </trkpt>
      <trkpt lat="46.136186" lon="7.998412">
        <time>1970-01-01T00:00:00+00:00</time>
        <ele>3182.0</ele>
      </trkpt>
      <trkpt lat="46.136258" lon="7.997487">
        <time>1970-01-01T00:00:00+00:00</time>
        <ele>3161.0</ele>
      </trkpt>
      <trkpt lat="46.136981" lon="7.995656">
        <time>1970-01-01T00:00:00+00:00</time>
        <ele>3101.0</ele>
      </trkpt>
      <trkpt lat="46.136966" lon="7.995">
        <time>1970-01-01T00:00:00+00:00</time>
        <ele>3080.0</ele>
      </trkpt>
      <trkpt lat="46.13704" lon="7.995175">
        <time>1970-01-01T00:00:00+00:00</time>
        <ele>3090.0</ele>
      </trkpt>
      <trkpt lat="46.137754" lon="7.992671">
        <time>1970-01-01T00:00:00+00:00</time>
        <ele>3062.0</ele>
      </trkpt>
      <trkpt lat="46.138745" lon="7.992037">
        <time>1970-01-01T00:00:00+00:00</time>
        <ele>3107.0</ele>
      </trkpt>
      <trkpt lat="46.139422" lon="7.991225">
        <time>1970-01-01T00:00:00+00:00</time>
        <ele>3121.0</ele>
      </trkpt>
    </trkseg>
  </trk>
</gpx>
